Track ORBCOMM FM114 now! 10-day predictions ORBCOMM FM114 is classified as:
1 41179U 15081A 24325.94190546 .00001426 00000-0 34776-3 0 9994 2 41179 47.0014 189.9716 0002025 128.7218 231.3848 14.57484533474131